Location: Az?znagar
(16.8373°N, 80.5091°E)
Time: 01:50:59
(UTC+00:00)

Nadezhda 4 Rocket - Pass Details

Date: 10 July 2022
Orbit: 949 x 992 km, 82.9° (Epoch: 09 August)

Event Time Altitude Azimuth Distance (km) Brightness Sun altitude
Rises 22:14:45 0° 160° (SSE) 3,653 6.9 -25.2°
Reaches altitude 10° 22:17:34 10° 149° (SSE) 2,700 6.3 -24.7°
Maximum altitude 22:22:51 30° 90° (E) 1,636 5.7 -23.7°
Drops below altitude 10° 22:28:06 10° 31° (NNE) 2,681 7.2 -22.6°
Sets 22:30:52 0° 21° (NNE) 3,623 7.8 -22.1°
